Location: Monteux
(44.0348°N, 4.9972°E)
Time: 18:04:14
(UTC+00:00)

PSLV R/B - Pass Details

Date: 30 November 2020
Orbit: 568 x 597 km, 98.2° (Epoch: 22 January)

Event Time Altitude Azimuth Distance (km) Brightness Sun altitude
Exits shadow 17:36:20 31° 67° (ENE) 1,009 4.6 -16.2°
Maximum altitude 17:37:19 36° 98° (E) 912 4.4 -16.4°
Drops below altitude 10° 17:41:03 10° 166° (SSE) 1,864 6.5 -17.1°
Sets 17:43:19 0° 175° (S) 2,758 7.5 -17.5°
